Location: Gradaro
(45.0833°N, 10.8833°E)
Time: 20:54:29
(UTC+00:00)

FENGYUN 1C DEB - Visible Passes

Search period start: 24 June 2021 00:00
Search period end: 04 July 2021 00:00
Orbit: 804 x 830 km, 98.8° (Epoch: 24 June)

Date Brightness Start Highest point End Pass type
(mag) Time Alt. Az. Time Alt. Az. Time Alt. Az.
24 Jun ? 19:59:20 10° E 20:02:41 17° ENE 20:06:04 10° NNE visible
24 Jun ? 21:39:20 30° S 21:42:03 76° WSW 21:47:24 10° NNW visible
25 Jun ? 21:17:23 26° SSE 21:20:23 72° ENE 21:25:42 10° N visible
25 Jun ? 22:58:40 13° WSW 23:00:56 16° W 23:04:11 10° NW visible
26 Jun ? 20:55:25 20° SE 20:58:47 47° ENE 21:03:53 10° N visible
26 Jun ? 22:36:42 19° SW 22:39:00 25° W 22:43:21 10° NW visible
27 Jun ? 20:33:28 14° ESE 20:37:15 32° ENE 20:41:55 10° N visible
27 Jun ? 22:14:45 25° SSW 22:17:09 38° W 22:22:06 10° NNW visible
28 Jun ? 20:11:51 10° ESE 20:15:48 22° ENE 20:19:46 10° NNE visible
28 Jun ? 21:52:47 29° S 21:55:21 59° WSW 22:00:38 10° NNW visible
29 Jun ? 19:51:31 10° E 19:54:24 15° NE 19:57:18 10° NNE visible
29 Jun ? 21:30:50 29° SSE 21:33:38 89° W 21:39:00 10° NNW visible
29 Jun ? 23:12:20 10° WSW 23:14:23 12° W 23:16:28 10° WNW visible
30 Jun ? 21:08:52 24° SE 21:11:59 60° ENE 21:17:15 10° N visible
30 Jun ? 22:50:10 15° WSW 22:52:24 19° W 22:56:11 10° NW visible
01 Jul ? 20:46:55 18° SE 20:50:24 40° ENE 20:55:21 10° N visible
01 Jul ? 22:28:12 22° SW 22:30:29 30° W 22:35:08 10° NW visible
02 Jul ? 20:24:57 12° ESE 20:28:53 27° ENE 20:33:19 10° N visible
02 Jul ? 22:06:14 28° SSW 22:08:38 45° W 22:13:46 10° NNW visible
03 Jul ? 20:03:52 10° ESE 20:07:27 19° ENE 20:11:04 10° NNE visible
03 Jul ? 21:44:17 31° S 21:46:53 70° WSW 21:52:14 10° NNW visible
